Grand Island, NE

9:07 PM CST on December 10, 2019 (GMT -0600)
Central Nebraska Regional

Weather History for KGRI - October, 2019

Change the Weather History Date:

Thursday, October 24, 2019

  Actual Average Record
Temperature  
Mean Temperature 39 °F 49 °F  
Max Temperature 50 °F 61 °F 86 °F (1927)
Min Temperature 28 °F 37 °F 18 °F (1938)
Degree Days  
Heating Degree Days 26 16  
Month to date heating degree days 338 284  
Since 1 July heating degree days 350 399  
Cooling Degree Days 0 0  
Month to date cooling degree days 0 10  
Year to date cooling degree days 1153 1033  
Moisture  
Dew Point 23 °F    
Average Humidity 55    
Maximum Humidity 75    
Minimum Humidity 34    
Precipitation  
Precipitation 0.00 in 0.06 in 1.07 in (1997)
Month to date precipitation 1.23 1.53  
Year to date precipitation 36.18 24.53  
Snow  
Snow 0.00 in 0.00 in 0.90 in (1957)
Month to date snowfall T 0.6  
Since 1 July snowfall T 0.7  
Since 1 September snowfall T 0.7  
Snow Depth 0.00 in    
Sea Level Pressure  
Sea Level Pressure 30.44 in    
Wind  
Wind Speed 8 mph (NNW)    
Max Wind Speed 20 mph    
Max Gust Speed 25 mph    
Visibility 10 miles    
Events      
T = Trace of Precipitation, MM = Missing Value Source: NWS Daily Summary

Daily Weather History Graph

Daily Weather History Graph

Search for Another Location

Airport or City:

Astronomy

Oct. 24, 2019 Rise Set
Actual Time 7:54 AM CDT 6:39 PM CDT
Civil Twilight 7:26 AM CDT 7:07 PM CDT
Nautical Twilight 6:54 AM CDT 7:39 PM CDT
Astronomical Twilight 6:22 AM CDT 8:11 PM CDT
Moon 3:23 AM CDT (10/24) 5:10 PM CDT (10/24)
Length of Visible Light 11h 41m
Length of Day
10h 45m
Waning Crescent, 16% of the Moon is Illuminated
Oct 24
Waning Crescent
Oct 27
New
Nov 4
First Quarter
Nov 12
Full
Nov 19
Last Quarter

Hourly Weather History & Observations

Time (CDT) Temp. Windchill Dew Point Humidity Pressure Visibility Wind Dir Wind Speed Gust Speed Precip Events Conditions
12:53 AM 36.0 °F 27.1 °F 27.0 °F 70% 30.36 in 10.0 mi NNW 13.8 mph - N/A   Overcast
1:53 AM 37.0 °F 27.4 °F 24.1 °F 59% 30.39 in 10.0 mi NNW 17.3 mph - N/A   Overcast
2:53 AM 35.1 °F 26.9 °F 23.0 °F 61% 30.39 in 10.0 mi NNW 11.5 mph - N/A   Clear
3:53 AM 34.0 °F 26.6 °F 23.0 °F 64% 30.38 in 10.0 mi NNW 9.2 mph - N/A   Clear
4:53 AM 33.1 °F 24.4 °F 23.0 °F 66% 30.39 in 10.0 mi NW 11.5 mph - N/A   Clear
5:53 AM 33.1 °F 24.9 °F 23.0 °F 66% 30.42 in 10.0 mi NNW 10.4 mph - N/A   Clear
6:53 AM 30.9 °F 22.2 °F 23.0 °F 72% 30.43 in 10.0 mi NNW 10.4 mph - N/A   Clear
7:53 AM 28.9 °F 21.9 °F 21.9 °F 75% 30.49 in 10.0 mi WNW 6.9 mph - N/A   Clear
8:53 AM 30.0 °F 22.4 °F 23.0 °F 75% 30.51 in 10.0 mi NW 8.1 mph - N/A   Clear
9:53 AM 35.1 °F 28.6 °F 25.0 °F 67% 30.53 in 10.0 mi NNW 8.1 mph - N/A   Clear
10:53 AM 39.0 °F 32.8 °F 24.1 °F 55% 30.52 in 10.0 mi North 9.2 mph - N/A   Clear
11:53 AM 42.1 °F 37.1 °F 21.0 °F 43% 30.51 in 10.0 mi NNE 8.1 mph 20.7 mph N/A   Clear
12:53 PM 45.0 °F 41.8 °F 21.9 °F 40% 30.51 in 10.0 mi Variable 5.8 mph - N/A   Clear
1:53 PM 46.9 °F - 21.9 °F 37% 30.46 in 10.0 mi North 5.8 mph - N/A   Clear
2:53 PM 48.0 °F - 21.0 °F 34% 30.41 in 10.0 mi North 11.5 mph - N/A   Clear
3:53 PM 48.9 °F - 21.9 °F 35% 30.39 in 10.0 mi North 12.7 mph - N/A   Clear
4:53 PM 48.9 °F - 21.9 °F 35% 30.41 in 10.0 mi North 8.1 mph - N/A   Clear
5:53 PM 48.0 °F - 21.0 °F 34% 30.42 in 10.0 mi NE 3.5 mph - N/A   Clear
6:53 PM 41.0 °F - 24.1 °F 51% 30.43 in 10.0 mi Calm Calm - N/A   Clear
7:53 PM 39.9 °F 35.8 °F 24.1 °F 53% 30.44 in 10.0 mi South 5.8 mph - N/A   Clear
8:53 PM 39.0 °F 35.7 °F 24.1 °F 55% 30.44 in 10.0 mi South 4.6 mph - N/A   Clear
9:53 PM 34.0 °F 28.8 °F 24.1 °F 67% 30.44 in 10.0 mi SSW 5.8 mph - N/A   Clear
11:53 PM 34.0 °F 29.8 °F 23.0 °F 64% 30.44 in 10.0 mi SW 4.6 mph - N/A   Clear